Location: Bletchingley
(51.2333°N, 0.1000°W)
Time: 04:01:01
(UTC+00:00)

Sich 1 Rocket - Pass Details

Date: 18 September 2020
Orbit: 617 x 652 km, 82.5° (Epoch: 18 October)

Event Time Altitude Azimuth Distance (km) Brightness Sun altitude
Rises 19:21:11 0° 187° (S) 2,918 6.9 -12.2°
Reaches altitude 10° 19:23:24 10° 186° (S) 2,021 6.1 -12.6°
Maximum altitude 19:27:53 84° 100° (E) 652 3.6 -13.2°
Drops below altitude 10° 19:32:28 10° 12° (NNE) 2,058 6.3 -13.9°
Sets 19:34:44 0° 11° (NNE) 2,978 7.2 -14.2°
